Ardmore, OK

3:36 PM CDT on June 25, 2017 (GMT -0500)
Ardmore Municipal

Weather History for KADM - November, 2012

Change the Weather History Date:

Wednesday, November 21, 2012

  Actual Average Record
Temperature  
Mean Temperature 59 °F -  
Max Temperature 77 °F 60 °F 78 °F (2010)
Min Temperature 41 °F 41 °F 23 °F (2000)
Degree Days  
Heating Degree Days 6    
Growing Degree Days 9 (Base 50)    
Moisture  
Dew Point 44 °F    
Average Humidity 85    
Maximum Humidity 100    
Minimum Humidity 41    
Precipitation  
Precipitation 0.00 in - - ()
Sea Level Pressure  
Sea Level Pressure 30.19 in    
Wind  
Wind Speed 1 mph (SE)    
Max Wind Speed 12 mph    
Max Gust Speed -    
Visibility 9 miles    
Events      
Averages and records for this station are not official NWS values.
T = Trace of Precipitation, MM = Missing Value Source: NWS Daily Summary

Daily Weather History Graph

Daily Weather History Graph

Search for Another Location

Airport or City:

Trip Planner

Search our weather history database for the weather conditions in past years. The results will help you decide how hot, cold, wet, or windy it might be!

Date:

Astronomy

Nov. 21, 2012 Rise Set
Actual Time 7:07 AM CST 5:20 PM CST
Civil Twilight 6:40 AM CST 5:47 PM CST
Nautical Twilight 6:09 AM CST 6:18 PM CST
Astronomical Twilight 5:39 AM CST 6:48 PM CST
Moon 1:23 PM CST (11/21) 12:43 AM CST (11/21)
Length of Visible Light 11h 07m
Length of Day
10h 13m
First Quarter, 62% of the Moon is Illuminated
Nov 21
First Quarter
Nov 28
Full
Dec 6
Last Quarter
Dec 13
New
Dec 19
First Quarter

Hourly Weather History & Observations

Time (CST) Temp. Windchill Dew Point Humidity Pressure Visibility Wind Dir Wind Speed Gust Speed Precip Events Conditions
12:15 AM 46.4 °F - 44.6 °F 93% 30.22 in 10.0 mi Calm Calm - N/A   Clear
12:35 AM 46.4 °F - 44.6 °F 93% 30.22 in 10.0 mi Calm Calm - N/A   Clear
12:55 AM 44.6 °F - 44.6 °F 100% 30.21 in 10.0 mi Calm Calm - N/A   Clear
1:15 AM 42.8 °F - 42.8 °F 100% 30.21 in 10.0 mi Calm Calm - N/A   Clear
1:35 AM 44.6 °F - 42.8 °F 93% 30.21 in 10.0 mi Calm Calm - N/A   Clear
1:55 AM 44.6 °F - 44.6 °F 100% 30.21 in 5.0 mi Calm Calm - N/A   Clear
2:15 AM 42.8 °F - 42.8 °F 100% 30.21 in 7.0 mi Calm Calm - N/A   Clear
2:35 AM 42.8 °F - 42.8 °F 100% 30.21 in 10.0 mi Calm Calm - N/A   Clear
2:55 AM 42.8 °F - 42.8 °F 100% 30.20 in 4.0 mi Calm Calm - N/A   Clear
3:15 AM 42.8 °F - 42.8 °F 100% 30.20 in 1.0 mi Calm Calm - N/A   Mist
3:35 AM 41.0 °F - 41.0 °F 100% 30.20 in 10.0 mi Calm Calm - N/A   Clear
3:55 AM 41.0 °F - 41.0 °F 100% 30.21 in 10.0 mi Calm Calm - N/A   Clear
4:15 AM 41.0 °F 39.0 °F 41.0 °F 100% 30.21 in 10.0 mi ENE 3.5 mph - N/A   Clear
4:35 AM 41.0 °F - 41.0 °F 100% 30.21 in 10.0 mi Calm Calm - N/A   Clear
4:55 AM 41.0 °F - 41.0 °F 100% 30.22 in 10.0 mi Calm Calm - N/A   Clear
5:15 AM 41.0 °F - 41.0 °F 100% 30.22 in 10.0 mi Calm Calm - N/A   Clear
5:35 AM 41.0 °F - 41.0 °F 100% 30.23 in 7.0 mi Calm Calm - N/A   Clear
8:55 AM 51.8 °F - 48.2 °F 88% 30.27 in 10.0 mi Calm Calm - N/A   Clear
11:55 AM 75.2 °F - 53.6 °F 47% 30.22 in 10.0 mi SE 11.5 mph - N/A   Clear
12:55 PM 77.0 °F - 51.8 °F 41% 30.20 in 10.0 mi SSE 9.2 mph - N/A   Clear
10:35 PM 62.6 °F - 44.6 °F 52% 30.11 in 10.0 mi SSE 4.6 mph - N/A   Clear
10:55 PM 62.6 °F - 46.4 °F 55% 30.10 in 10.0 mi SE 4.6 mph - N/A   Clear
11:15 PM 60.8 °F - 46.4 °F 59% 30.10 in 10.0 mi SSE 4.6 mph - N/A   Clear
11:35 PM 62.6 °F - 46.4 °F 55% 30.09 in 10.0 mi SSE 6.9 mph - N/A   Clear
11:55 PM 62.6 °F - 46.4 °F 55% 30.09 in 10.0 mi South 5.8 mph - N/A   Clear